�������l�o���
Date,Time,MP-1(��Sv/h),MP-2(��Sv/h),MP-3(��Sv/h),MP-4(��Sv/h),MP-5(��Sv/h),MP-6(��Sv/h),MP-7(��Sv/h),MP-8(��Sv/h),����,����(m/s),���J
2023/07/29,00:00,0.547,0.833,0.506,1.002,0.744,0.328,0.579,0.539,��쐼,4.2,��
2023/07/29,00:10,0.545,0.832,0.504,1.004,0.740,0.327,0.579,0.538,��쐼,3.9,��
2023/07/29,00:20,0.545,0.832,0.504,1.004,0.741,0.327,0.580,0.538,�쐼,3.8,��
2023/07/29,00:30,0.545,0.831,0.505,1.005,0.742,0.327,0.580,0.540,�쐼,3.5,��
2023/07/29,00:40,0.546,0.832,0.503,1.007,0.743,0.329,0.580,0.538,��쐼,3.5,��
2023/07/29,00:50,0.547,0.833,0.504,1.004,0.743,0.328,0.580,0.538,��쐼,3.2,��
2023/07/29,01:00,0.547,0.832,0.504,1.005,0.744,0.329,0.581,0.539,�쐼,2.6,��
2023/07/29,01:10,0.546,0.831,0.504,1.006,0.741,0.329,0.579,0.539,��쐼,2.8,��
2023/07/29,01:20,0.544,0.830,0.506,1.004,0.741,0.327,0.580,0.540,��쐼,2.3,��
2023/07/29,01:30,0.548,0.832,0.504,1.004,0.741,0.329,0.578,0.540,��쐼,2.6,��
2023/07/29,01:40,0.545,0.830,0.505,1.006,0.742,0.329,0.580,0.538,��쐼,2.2,��
2023/07/29,01:50,0.545,0.831,0.503,1.005,0.741,0.329,0.580,0.539,��쐼,2.2,��
2023/07/29,02:00,0.547,0.831,0.503,1.006,0.742,0.327,0.579,0.538,��쐼,2.5,��
2023/07/29,02:10,0.546,0.829,0.504,1.004,0.743,0.330,0.579,0.539,�쐼,2.0,��
2023/07/29,02:20,0.547,0.830,0.503,1.005,0.741,0.328,0.580,0.539,��쐼,0.8,��
2023/07/29,02:30,0.547,0.830,0.502,1.003,0.742,0.328,0.580,0.538,�k��,0.8,��
2023/07/29,02:40,0.546,0.831,0.502,1.004,0.741,0.329,0.581,0.540,�k�k��,1.1,��
2023/07/29,02:50,0.545,0.831,0.503,1.004,0.742,0.329,0.580,0.539,�k��,1.5,��
2023/07/29,03:00,0.546,0.830,0.503,1.006,0.741,0.328,0.579,0.540,�k�k��,1.1,��
2023/07/29,03:10,0.544,0.831,0.504,1.004,0.743,0.328,0.579,0.540,�k,2.0,��
2023/07/29,03:20,0.546,0.832,0.504,1.003,0.743,0.328,0.579,0.539,�k�k��,2.3,��
2023/07/29,03:30,0.546,0.831,0.503,1.004,0.742,0.328,0.580,0.541,�k��,2.2,��
2023/07/29,03:40,0.544,0.832,0.504,1.005,0.743,0.329,0.579,0.540,�k��,2.0,��
2023/07/29,03:50,0.546,0.831,0.505,1.004,0.741,0.329,0.579,0.538,�k��,1.9,��
2023/07/29,04:00,0.546,0.832,0.503,1.004,0.743,0.328,0.579,0.540,�k�k��,0.9,��
2023/07/29,04:10,0.546,0.829,0.504,1.004,0.742,0.329,0.579,0.539,��,1.1,��
2023/07/29,04:20,0.546,0.830,0.503,1.003,0.741,0.327,0.578,0.540,���k��,1.1,��
2023/07/29,04:30,0.545,0.829,0.504,1.004,0.741,0.328,0.579,0.540,�k��,1.5,��
2023/07/29,04:40,0.546,0.832,0.505,1.006,0.742,0.328,0.579,0.540,�k��,2.0,��
2023/07/29,04:50,0.546,0.831,0.504,1.003,0.739,0.327,0.579,0.539,���k��,2.2,��
2023/07/29,05:00,0.545,0.830,0.503,1.004,0.742,0.328,0.579,0.540,���k��,2.6,��
2023/07/29,05:10,0.546,0.832,0.504,1.004,0.741,0.328,0.580,0.540,�k�k��,2.9,��
2023/07/29,05:20,0.544,0.831,0.506,1.005,0.742,0.328,0.578,0.539,�k�k��,3.2,��
2023/07/29,05:30,0.546,0.830,0.503,1.006,0.742,0.329,0.579,0.539,�k�k��,3.5,��
2023/07/29,05:40,0.545,0.830,0.504,1.006,0.741,0.328,0.580,0.538,�k�k��,3.5,��
2023/07/29,05:50,0.544,0.829,0.505,1.006,0.742,0.327,0.579,0.539,�k�k��,2.8,��
2023/07/29,06:00,0.544,0.829,0.503,1.003,0.741,0.328,0.580,0.539,�k�k��,3.2,��
2023/07/29,06:10,0.542,0.829,0.504,1.004,0.741,0.328,0.579,0.538,�k�k��,2.9,��
2023/07/29,06:20,0.544,0.831,0.503,1.004,0.740,0.329,0.577,0.539,�k,2.6,��
2023/07/29,06:30,0.544,0.831,0.503,1.004,0.741,0.327,0.579,0.538,�k�k��,2.6,��
2023/07/29,06:40,0.544,0.827,0.503,1.004,0.739,0.328,0.579,0.541,�k,2.0,��
2023/07/29,06:50,0.545,0.830,0.503,1.004,0.740,0.328,0.579,0.540,�k,1.7,��
2023/07/29,07:00,0.545,0.827,0.504,1.004,0.741,0.327,0.579,0.538,�k�k��,1.7,��
2023/07/29,07:10,0.546,0.829,0.503,1.004,0.741,0.329,0.580,0.539,�k�k��,1.4,��
2023/07/29,07:20,0.544,0.830,0.505,1.004,0.740,0.328,0.578,0.540,�k,1.1,��
2023/07/29,07:30,0.543,0.830,0.503,1.005,0.740,0.327,0.581,0.539,�k�k��,1.2,��
2023/07/29,07:40,0.545,0.830,0.500,1.004,0.739,0.327,0.580,0.540,�k�k��,1.5,��
2023/07/29,07:50,0.544,0.831,0.502,1.004,0.740,0.328,0.582,0.540,�k��,1.4,��
2023/07/29,08:00,0.543,0.828,0.502,1.006,0.739,0.327,0.579,0.540,�k�k��,1.2,��
2023/07/29,08:10,0.544,0.829,0.504,1.006,0.742,0.328,0.581,0.540,�k��,1.1,��
2023/07/29,08:20,0.542,0.828,0.503,1.004,0.740,0.327,0.579,0.539,��,1.2,��
2023/07/29,08:30,0.544,0.828,0.503,1.005,0.741,0.327,0.582,0.539,��,1.1,��
2023/07/29,08:40,0.544,0.831,0.502,1.008,0.741,0.328,0.581,0.539,���쓌,1.7,��
2023/07/29,08:50,0.545,0.832,0.502,1.003,0.742,0.328,0.581,0.538,���쓌,1.7,��
2023/07/29,09:00,0.544,0.831,0.502,1.004,0.741,0.328,0.581,0.538,�쓌,1.7,��
2023/07/29,09:10,0.546,0.830,0.503,1.007,0.744,0.327,0.583,0.537,�쓌,1.5,��
2023/07/29,09:20,0.545,0.829,0.504,1.007,0.744,0.326,0.580,0.538,���쓌,2.0,��
2023/07/29,09:30,0.546,0.830,0.502,1.006,0.743,0.327,0.581,0.536,���쓌,1.9,��
2023/07/29,09:40,0.547,0.834,0.504,1.008,0.744,0.327,0.582,0.538,���쓌,1.7,��
2023/07/29,09:50,0.545,0.831,0.504,1.005,0.743,0.327,0.581,0.538,���쓌,2.8,��
2023/07/29,10:00,0.546,0.833,0.505,1.005,0.746,0.328,0.579,0.538,���쓌,2.5,��
2023/07/29,10:10,0.544,0.834,0.505,1.008,0.744,0.327,0.578,0.539,���쓌,2.6,��
2023/07/29,10:20,0.546,0.833,0.504,1.007,0.746,0.328,0.579,0.539,���쓌,2.3,��
2023/07/29,10:30,0.545,0.834,0.505,1.007,0.746,0.327,0.578,0.539,���쓌,1.5,��
2023/07/29,10:40,0.546,0.835,0.505,1.007,0.746,0.326,0.577,0.539,�쓌,2.8,��
2023/07/29,10:50,0.546,0.835,0.507,1.007,0.746,0.327,0.579,0.538,�쓌,3.8,��
2023/07/29,11:00,0.547,0.836,0.505,1.008,0.743,0.327,0.580,0.536,�쓌,4.3,��
2023/07/29,11:10,0.547,0.835,0.505,1.006,0.746,0.329,0.580,0.539,�쓌,4.3,��
2023/07/29,11:20,0.545,0.834,0.506,1.005,0.746,0.328,0.579,0.539,��쓌,4.5,��
2023/07/29,11:30,0.545,0.836,0.504,1.005,0.744,0.329,0.580,0.539,��쓌,6.2,��
2023/07/29,11:40,0.545,0.836,0.506,1.004,0.746,0.329,0.579,0.540,��쓌,5.6,��
2023/07/29,11:50,0.546,0.834,0.508,1.005,0.744,0.330,0.579,0.541,��쓌,6.1,��
2023/07/29,12:00,0.547,0.834,0.505,1.004,0.746,0.329,0.579,0.541,��쓌,6.9,��
2023/07/29,12:10,0.546,0.834,0.506,1.005,0.747,0.329,0.580,0.540,��쓌,7.1,��
2023/07/29,12:20,0.543,0.834,0.508,1.006,0.746,0.329,0.580,0.541,��쓌,7.7,��
2023/07/29,12:30,0.546,0.835,0.504,1.007,0.746,0.329,0.581,0.541,��쓌,5.5,��
2023/07/29,12:40,0.549,0.835,0.505,1.005,0.747,0.329,0.581,0.540,��쓌,5.4,��
2023/07/29,12:50,0.548,0.834,0.505,1.006,0.747,0.330,0.579,0.540,��쓌,5.8,��
2023/07/29,13:00,0.548,0.837,0.506,1.007,0.747,0.330,0.582,0.541,��,4.9,��
2023/07/29,13:10,0.547,0.832,0.505,1.005,0.746,0.330,0.581,0.541,��쓌,5.1,��
2023/07/29,13:20,0.547,0.836,0.506,1.007,0.747,0.329,0.582,0.540,��,6.0,��
2023/07/29,13:30,0.548,0.834,0.505,1.007,0.748,0.328,0.582,0.541,��,6.1,��
2023/07/29,13:40,0.547,0.834,0.505,1.004,0.746,0.329,0.582,0.541,��,6.5,��
2023/07/29,13:50,0.547,0.835,0.506,1.006,0.748,0.329,0.583,0.541,��,6.6,��
2023/07/29,14:00,0.547,0.835,0.506,1.007,0.747,0.328,0.583,0.541,��쓌,6.5,��
2023/07/29,14:10,0.547,0.835,0.506,1.006,0.747,0.329,0.581,0.540,��,6.8,��
2023/07/29,14:20,0.547,0.835,0.505,1.009,0.747,0.329,0.581,0.541,��,7.7,��
2023/07/29,14:30,0.547,0.834,0.505,1.006,0.746,0.329,0.584,0.541,��,6.7,��
2023/07/29,14:40,0.547,0.835,0.505,1.008,0.746,0.329,0.581,0.540,��,6.4,��
2023/07/29,14:50,0.547,0.835,0.505,1.009,0.746,0.329,0.581,0.539,��,6.8,��
2023/07/29,15:00,0.549,0.835,0.505,1.013,0.746,0.329,0.582,0.540,��,6.9,��
2023/07/29,15:10,0.548,0.835,0.505,1.010,0.747,0.328,0.582,0.537,��,6.6,��
2023/07/29,15:20,0.548,0.836,0.504,1.010,0.745,0.328,0.582,0.539,��,6.8,��
2023/07/29,15:30,0.547,0.834,0.504,1.011,0.746,0.328,0.582,0.538,��,6.6,��
2023/07/29,15:40,0.547,0.836,0.506,1.012,0.747,0.327,0.582,0.538,��,6.9,��
2023/07/29,15:50,0.547,0.835,0.504,1.012,0.747,0.327,0.581,0.538,��,7.5,��
2023/07/29,16:00,0.548,0.834,0.504,1.010,0.746,0.326,0.582,0.538,��,6.7,��
2023/07/29,16:10,0.546,0.835,0.504,1.011,0.745,0.327,0.580,0.538,��,6.9,��
2023/07/29,16:20,0.545,0.836,0.505,1.010,0.743,0.327,0.580,0.538,��,6.4,��
2023/07/29,16:30,0.546,0.833,0.505,1.011,0.744,0.326,0.580,0.538,��,6.7,��
2023/07/29,16:40,0.545,0.831,0.505,1.010,0.744,0.328,0.580,0.538,��,6.9,��
2023/07/29,16:50,0.546,0.834,0.505,1.009,0.747,0.327,0.581,0.537,��,8.0,��
2023/07/29,17:00,0.546,0.834,0.505,1.012,0.746,0.326,0.579,0.539,��,7.1,��
2023/07/29,17:10,0.546,0.835,0.505,1.013,0.746,0.326,0.579,0.539,��,7.5,��
2023/07/29,17:20,0.546,0.833,0.503,1.011,0.744,0.327,0.579,0.537,��,8.1,��
2023/07/29,17:30,0.546,0.834,0.504,1.010,0.744,0.327,0.580,0.538,��,6.8,��
2023/07/29,17:40,0.547,0.833,0.504,1.008,0.746,0.327,0.580,0.541,��,5.9,��
2023/07/29,17:50,0.545,0.833,0.504,1.009,0.744,0.327,0.580,0.540,��,5.7,��
2023/07/29,18:00,0.548,0.832,0.502,1.010,0.746,0.326,0.580,0.539,��,5.8,��
2023/07/29,18:10,0.546,0.834,0.503,1.009,0.745,0.327,0.578,0.540,��,5.5,��
2023/07/29,18:20,0.546,0.834,0.502,1.010,0.746,0.325,0.579,0.539,��,5.3,��
2023/07/29,18:30,0.547,0.832,0.505,1.010,0.747,0.327,0.579,0.541,��,5.7,��
2023/07/29,18:40,0.547,0.834,0.503,1.008,0.744,0.327,0.578,0.540,��,6.3,��
2023/07/29,18:50,0.545,0.834,0.503,1.009,0.746,0.328,0.580,0.539,��,6.4,��
2023/07/29,19:00,0.546,0.833,0.502,1.011,0.745,0.328,0.580,0.539,��,5.8,��
2023/07/29,19:10,0.547,0.835,0.503,1.009,0.746,0.327,0.579,0.539,��,6.2,��
2023/07/29,19:20,0.547,0.831,0.504,1.011,0.743,0.328,0.579,0.539,��,5.9,��
2023/07/29,19:30,0.547,0.833,0.504,1.010,0.744,0.326,0.580,0.541,��,5.5,��
2023/07/29,19:40,0.547,0.833,0.503,1.009,0.745,0.327,0.580,0.538,��,5.5,��
2023/07/29,19:50,0.547,0.833,0.504,1.009,0.745,0.328,0.579,0.540,��,4.8,��
2023/07/29,20:00,0.546,0.832,0.504,1.011,0.743,0.327,0.579,0.540,��,4.3,��
2023/07/29,20:10,0.547,0.831,0.504,1.010,0.746,0.328,0.580,0.539,��,4.5,��
2023/07/29,20:20,0.548,0.833,0.504,1.008,0.745,0.327,0.579,0.538,��,4.5,��
2023/07/29,20:30,0.546,0.833,0.505,1.009,0.745,0.327,0.579,0.539,��,4.1,��
2023/07/29,20:40,0.547,0.834,0.504,1.010,0.745,0.327,0.579,0.539,��,3.9,��
2023/07/29,20:50,0.547,0.835,0.503,1.010,0.746,0.328,0.578,0.539,��쐼,3.8,��
2023/07/29,21:00,0.548,0.834,0.504,1.010,0.746,0.328,0.578,0.538,��쐼,3.8,��
2023/07/29,21:10,0.548,0.832,0.505,1.008,0.746,0.329,0.580,0.540,��쐼,3.4,��
2023/07/29,21:20,0.546,0.833,0.503,1.010,0.748,0.328,0.580,0.538,��쐼,2.6,��
2023/07/29,21:30,0.547,0.833,0.504,1.010,0.745,0.329,0.579,0.540,��쐼,2.9,��
2023/07/29,21:40,0.548,0.834,0.505,1.008,0.746,0.329,0.581,0.541,��쐼,2.8,��
2023/07/29,21:50,0.547,0.836,0.506,1.010,0.743,0.329,0.579,0.539,��쐼,2.6,��
2023/07/29,22:00,0.548,0.833,0.507,1.010,0.747,0.328,0.580,0.538,��쐼,2.9,��
2023/07/29,22:10,0.548,0.834,0.505,1.009,0.746,0.328,0.580,0.540,��쐼,2.6,��
2023/07/29,22:20,0.550,0.834,0.504,1.011,0.746,0.328,0.579,0.538,��쐼,2.3,��
2023/07/29,22:30,0.548,0.832,0.504,1.010,0.746,0.329,0.580,0.539,��쐼,2.2,��
2023/07/29,22:40,0.549,0.832,0.507,1.011,0.746,0.329,0.581,0.539,�쐼,2.3,��
2023/07/29,22:50,0.548,0.836,0.505,1.008,0.746,0.329,0.581,0.538,���쐼,1.9,��
2023/07/29,23:00,0.549,0.833,0.505,1.009,0.746,0.328,0.581,0.540,�쐼,2.2,��
2023/07/29,23:10,0.549,0.833,0.506,1.012,0.747,0.328,0.581,0.540,�쐼,2.8,��
2023/07/29,23:20,0.548,0.835,0.505,1.010,0.745,0.329,0.582,0.540,��쐼,2.3,��
2023/07/29,23:30,0.548,0.835,0.505,1.012,0.746,0.328,0.580,0.541,��쐼,2.3,��
2023/07/29,23:40,0.547,0.833,0.505,1.009,0.747,0.328,0.580,0.539,�쐼,2.2,��
2023/07/29,23:50,0.549,0.835,0.504,1.012,0.745,0.329,0.581,0.542,��쐼,3.0,��
